ECHO 1 DEB (METAL OBJ), 53

Orbit data source: Space-Track

ECHO 1 DEB (METAL OBJ), 53 is space debris in LEO originally from a launch on Fri, 12 Aug 1960 UTC launched from the Air Force Eastern Test Range (AFETR). Debris objects in space refer to the collection of defunct objects orbiting the Earth. Examples of debris include non-operational satellites, rocket bodies, and fragments generated from explosions, collisions, or faulty payload assembly.

Loading next visibility...
Identifier
53, 1960-009E
Orbit
LEO
Country
Flag of USUS
Related business
Manufacturer
Kaiser-Fleetwings
Mission
Spacecraft
Bus & Motor
ECHO CANISTER, Unknown motor
Mass
5 kg wet, 5 kg dry
Launch date (UTC)
1960-08-12 (65 years ago)
Launch vehicle
Unknown
Launch site
Air Force Eastern Test Range (AFETR)
Object type
Payload
Rocket body
Debris
Shape & HBR
Unknown shape, 0.9 m
Radar Cross Section
Medium (>0.1 m² and <1 m²)

Expand to show TLE details & history
Last TLE update: 13 hours ago

TLE from 13 hours ago
0 ECHO 1 DEB (METAL OBJ)
1 00053U 60009E   25353.21853705 -.00000047  00000-0  35791-3 0  9992
2 00053  47.2741 177.4842 0097247 263.8389  95.1313 12.17396710913503
Epoch: 2025-12-19T05:14Z
TLE epoch observation values (Epoch: 2025-12-19T05:14:41.601Z)
Latitude
-0.00002°
Longitude
10.748°
Altitude
1,611.808 km
Speed
7.062 km/s
True Right ascension
11h 49m 56s
True Declination
0° 00' 00"
Sunlit
Object was in daylight at epoch
Visualization orbit readout
Latitude
Unknown
Longitude
Unknown
Altitude
Unknown
Speed
Unknown
Apparent Right ascension
Unknown
Apparent Declination
Unknown
Sunlit
N/A
Visualization observer readout
Local Sidereal Time
16:38:58
Azimuth
Unknown
Elevation
Unknown
Doppler factor
Unknown
Orbital elements
Apogee altitude
1,682.59 km
Perigee altitude
1,527.324 km
Semi-major axis
7,983.094 km
Eccentricity
0.00972
Inclination
47.2741°
RAAN
177.4842°
Arg. of periapsis
263.8389°
True anomaly
96.23993°
Mean anomaly
95.1313°
Eccentric anomaly
95.68574°
Mean motion
3.04289 °/min
Orbital period
118.31 mins
BSTAR
0.00035791
Loading maneuver chart data...
Computing Atmospheric mass density...
Loading historical data...
Loading historical data...
Loading historical data...
Loading historical data...
Loading historical data...
Loading historical data...
Loading historical data...
Other satellites on launch #9 in the year 1960 (1960-08-12 UTC)

Documentation

Showing up to 5 results
|